sat.trackr.live / text

‹ back to catalog

STARLINK-33727

NORAD 63719 · 2025-087Y

PAYLOAD ACTIVE UNKNOWN

§ Identity

Operator
Country
US
Launch date
2025-04-28
Launch site
AFWTR
Launch vehicle
Mass (kg)
RCS (m²)

Purposes: comms

External: N2YO · Heavens-Above · Gunter

§ Orbital elements

Epoch: 2026-09-20T13:54:22.873824Z

Period
93.85 min
Inclination
53.1589°
Eccentricity
0.0000901
Mean motion
15.34402520 rev/d
Perigee alt
462.1 km
Apogee alt
463.3 km
Semi-major
6,840.8 km
B*
3.3387e-4
RAAN
29.6649°
Arg perigee
81.4157°
Mean anomaly
278.6948°
Rev number
7,910

§ Raw data

STARLINK-337271 63719U 25087Y   26263.57943141  .00010922  00000+0  33387-3 0  99912 63719  53.1589  29.6649 0000901  81.4157 278.6948 15.34402520 79108

JSON: /api/v1/satellites/63719 · /tle

For live sub-satellite position, see the globe view (requires WebGL).

§ Visibility from observer

Set your observer location to see the next 7 days of passes ≥ 10°. The values pass through the URL so the page stays shareable.

No JS? Fill the form by hand. The geolocation button needs JavaScript.